Content
SEND FEEDBACK

Daily
Averages
Monthly
Summary
United States of America

ST. LOUIS, MISSOURI


Home > North America > United States > Missouri
Elevation: 535 feet     Latitude: 38 45N     Longitude: 090 22W

WEATHER
 
SELECT A DAY
Number of Records: 196,268;   Date Range: 1/1/95 - 7/20/14
 
SHARE

PRINT THIS DATA

[ ← Previous Day ]
WEATHER ALMANAC - SEPTEMBER 18, 2013
[ Next Day → ]
[ °C ]   °F
Weather ElementAverageHighLow
Temperature76 °F89.1 °F (2:54 pm)66 °F (1:54 am)
Dewpoint66 °F68 °F (10:54 am)64 °F (1:54 am)
Humidity73.4 %94 % (3:22 am)48 % (3:54 pm)
Barometer30.00 in30.06 in (1:54 am)29.94 in (3:54 pm)
Wind Speed5 mph15 mph (3:54 pm)
Wind Gust21.9 mph (4:07 pm)
Weather ElementAverage
Visibility8.1 mi
Wind DirectionSSE (158.9 °)

Weather ElementTotal
Precipitation0.15 in
Cooling Degree Days12.6 (Base 65)
Growing Degree Days27.6 (Base 50)
Averaged from 27 records on September 18, 2013
WEATHER CONDITIONS BREAKOUT
WIND DIRECTION BREAKOUT
WEATHER BY HOUR - SEPTEMBER 18, 2013
[ °C ]   °F
Local TimeTemperatureDewpointHumidityBarometerVisibilityWind DirectionWind SpeedGust SpeedPrecipitationEventsConditions
1:54 AM66.0 °F64.0 °F93 %30.06 in5.0 miNNW (330°)5.8 mph0.00 inRainLight Rain
2:54 AM66.0 °F64.0 °F93 %30.06 in3.0 miCalm0.03 inOvercast
3:22 AM66.2 °F64.4 °F94 %30.06 in2.5 miESE (110°)5.8 mph0.02 inRainLight Rain
3:29 AM66.2 °F64.4 °F94 %30.06 in4.0 miCalm0.03 inRainLight Rain
3:54 AM66.0 °F64.0 °F93 %30.05 in6.0 miEast (80°)4.6 mph0.03 inRainLight Rain
4:54 AM66.0 °F64.0 °F93 %30.03 in6.0 miESE (110°)4.6 mph0.03 inScattered Clouds
5:54 AM66.9 °F64.9 °F93 %30.04 in4.0 miSouth (180°)3.5 mph0.01 inRainLight Rain
6:54 AM68.0 °F64.9 °F90 %30.04 in7.0 miSSE (150°)4.6 mph0.00 inMostly Cloudy
7:54 AM68.0 °F64.9 °F90 %30.04 in6.0 miSSE (150°)4.6 mphMostly Cloudy
8:54 AM70.0 °F66.0 °F87 %30.04 in6.0 miSouth (170°)4.6 mphMostly Cloudy
9:54 AM73.9 °F66.9 °F79 %30.04 in10.0 miSouth (170°)4.6 mphPartly Cloudy
10:54 AM79.0 °F68.0 °F69 %30.03 in10.0 miSouth (180°)5.8 mphClear
11:54 AM81.0 °F66.9 °F62 %30.02 in10.0 miSouth (190°)6.9 mphMostly Cloudy
12:54 PM84.0 °F66.9 °F56 %30.00 in10.0 miSW (220°)3.5 mphClear
1:54 PM86.0 °F68.0 °F55 %29.97 in10.0 miCalmMostly Cloudy
2:54 PM89.1 °F68.0 °F50 %29.96 in10.0 miSW (230°)6.9 mphMostly Cloudy
3:54 PM89.1 °F66.9 °F48 %29.94 in10.0 miWSW (240°)15.0 mphMostly Cloudy
4:07 PM87.8 °F66.2 °F49 %29.96 in10.0 miSW (220°)13.8 mph21.9 mphThunderstormMostly Cloudy
4:22 PM84.2 °F66.2 °F55 %29.96 in10.0 miSW (220°)8.1 mphMostly Cloudy
4:54 PM86.0 °F66.9 °F53 %29.94 in10.0 miSW (220°)6.9 mphMostly Cloudy
5:54 PM82.9 °F66.0 °F56 %29.94 in10.0 miSW (220°)6.9 mphMostly Cloudy
6:54 PM80.1 °F64.9 °F60 %29.94 in10.0 miSSW (210°)4.6 mphScattered Clouds
7:54 PM73.9 °F66.9 °F79 %29.94 in10.0 miSSE (160°)3.5 mphScattered Clouds
8:54 PM75.9 °F66.9 °F74 %29.94 in10.0 miSouth (180°)3.5 mphMostly Cloudy
9:54 PM77.0 °F66.9 °F71 %29.94 in10.0 miSouth (180°)3.5 mphMostly Cloudy
10:54 PM77.0 °F66.9 °F71 %29.95 in10.0 miCalmClear
11:54 PM77.0 °F68.0 °F74 %29.94 in10.0 miSouth (170°)4.6 mphClear
Hourly data recorded from KSUS, located miles away from St. Louis, Missouri







STORIES FROM OUR PARTNERS